GW0714 Weather Reports


Display with metric or nautical units.
time (UTC)temp
F
wind
direction
speed
MPH
gust
MPH
rain 1hr
in
rain 24hr
in
rain mn
in
humidity
%
barometer
mb
20260902202030 68 101 1.0 9.0 0.00 0.00 0.00 60 1017.9
20260902201545 68 57 2.0 9.0 0.00 0.00 0.00 61 1017.9
20260902201034 68 183 2.0 8.0 0.00 0.00 0.00 59 1018.0
20260902200533 69 105 0.0 8.0 0.00 0.00 0.00 59 1018.0
20260902200052 69 167 2.0 10.0 0.00 0.00 0.00 59 1018.1
20260902195529 68 0 2.0 10.0 0.00 0.00 0.00 60 1018.1
20260902195029 68 350 3.0 10.0 0.00 0.00 0.00 60 1018.1
20260902194556 68 5 2.0 9.0 0.00 0.00 0.00 60 1018.0
20260902194026 68 86 0.0 6.0 0.00 0.00 0.00 62 1018.0
20260902193530 67 336 0.0 10.0 0.00 0.00 0.00 62 1018.2
20260902193047 67 352 2.0 10.0 0.00 0.00 0.00 60 1018.3
20260902192530 67 352 3.0 9.0 0.00 0.00 0.00 61 1018.4
20260902192028 67 98 2.0 8.0 0.00 0.00 0.00 62 1018.4
20260902191553 67 312 0.0 8.0 0.00 0.00 0.00 62 1018.5
20260902191028 67 343 3.0 8.0 0.00 0.00 0.00 61 1018.5
20260902190529 67 352 3.0 9.0 0.00 0.00 0.00 61 1018.5
20260902190052 67 102 2.0 10.0 0.00 0.00 0.00 62 1018.6
20260902185530 67 360 2.0 10.0 0.00 0.00 0.00 62 1018.6
20260902185030 67 5 1.0 8.0 0.00 0.00 0.00 62 1018.7
20260902184548 67 334 1.0 8.0 0.00 0.00 0.00 63 1018.5
20260902184030 67 323 3.0 8.0 0.00 0.00 0.00 62 1018.5
20260902183530 66 332 1.0 8.0 0.00 0.00 0.00 62 1018.5
20260902183112 66 0 2.0 8.0 0.00 0.00 0.00 62 1018.5
20260902182531 66 360 4.0 8.0 0.00 0.00 0.00 62 1018.5
20260902182031 66 75 0.0 7.0 0.00 0.00 0.00 63 1018.4
20260902181544 66 0 3.0 7.0 0.00 0.00 0.00 62 1018.4
20260902181031 66 54 1.0 7.0 0.00 0.00 0.00 63 1018.5
20260902180529 65 300 2.0 6.0 0.00 0.00 0.00 63 1018.4
20260902180050 65 140 1.0 5.0 0.00 0.00 0.00 63 1018.5
20260902175530 65 36 1.0 8.0 0.00 0.00 0.00 62 1018.5
20260902175027 65 39 1.0 8.0 0.00 0.00 0.00 63 1018.4
20260902174546 65 342 4.0 8.0 0.00 0.00 0.00 63 1018.5
20260902174029 65 11 4.0 8.0 0.00 0.00 0.00 65 1018.5
20260902173529 64 360 2.0 8.0 0.00 0.00 0.00 65 1018.4
20260902173056 64 306 1.0 5.0 0.00 0.00 0.00 65 1018.5
20260902172529 64 314 1.0 9.0 0.00 0.00 0.00 65 1018.4
20260902172030 64 341 2.0 9.0 0.00 0.00 0.00 65 1018.3
20260902171610 63 348 3.0 9.0 0.00 0.00 0.00 65 1018.2
20260902171028 63 30 1.0 7.0 0.00 0.00 0.00 66 1018.2
20260902170534 62 323 2.0 8.0 0.00 0.00 0.00 66 1018.2
20260902170050 62 34 2.0 8.0 0.00 0.00 0.00 65 1018.2
20260902165530 62 5 2.0 5.0 0.00 0.00 0.00 65 1018.2
20260902165030 62 268 1.0 8.0 0.00 0.00 0.00 65 1018.2
20260902164557 62 342 1.0 8.0 0.00 0.00 0.00 64 1018.1
20260902164030 62 352 1.0 5.0 0.00 0.00 0.00 64 1018.1
20260902163533 61 0 0.0 8.0 0.00 0.00 0.00 66 1017.9
20260902163051 60 352 1.0 8.0 0.00 0.00 0.00 67 1018.0
20260902162529 60 315 1.0 7.0 0.00 0.00 0.00 68 1018.0
20260902162032 60 0 2.0 6.0 0.00 0.00 0.00 67 1018.0
20260902161550 60 349 1.0 4.0 0.00 0.00 0.00 66 1018.0
20260902161030 60 0 0.0 3.0 0.00 0.00 0.00 67 1018.1
20260902160529 60 0 0.0 6.0 0.00 0.00 0.00 69 1018.2
20260902160047 59 338 1.0 6.0 0.00 0.00 0.00 69 1018.1
20260902155529 58 340 0.0 5.0 0.00 0.00 0.00 69 1018.1
20260902155028 58 339 1.0 3.0 0.00 0.00 0.00 69 1018.1
20260902154552 58 333 0.0 3.0 0.00 0.00 0.00 71 1018.1
20260902154033 57 0 0.0 2.0 0.00 0.00 0.00 72 1018.1
20260902153530 57 0 0.0 2.0 0.00 0.00 0.00 71 1018.0
20260902153049 56 0 0.0 2.0 0.00 0.00 0.00 72 1018.0
20260902152528 56 0 0.0 1.0 0.00 0.00 0.00 73 1017.9
20260902152031 56 0 0.0 1.0 0.00 0.00 0.00 73 1017.9
20260902151549 56 0 0.0 2.0 0.00 0.00 0.00 74 1017.9
20260902151030 56 0 0.0 2.0 0.00 0.00 0.00 74 1017.9
20260902150529 55 0 0.0 2.0 0.00 0.00 0.00 75 1017.9
20260902150048 55 0 0.0 2.0 0.00 0.00 0.00 75 1017.8
20260902145529 55 0 0.0 2.0 0.00 0.00 0.00 76 1017.7
20260902145031 55 271 0.0 2.0 0.00 0.00 0.00 76 1017.6
20260902144543 55 293 0.0 2.0 0.00 0.00 0.00 77 1017.6
20260902144028 55 0 0.0 2.0 0.00 0.00 0.00 78 1017.5
20260902143529 55 0 0.0 2.0 0.00 0.00 0.00 78 1017.5
20260902143050 54 253 0.0 2.0 0.00 0.00 0.00 79 1017.6
20260902142529 54 0 0.0 2.0 0.00 0.00 0.00 79 1017.6
20260902142027 54 0 0.0 2.0 0.00 0.00 0.00 79 1017.7
20260902141554 54 0 0.0 2.0 0.00 0.00 0.00 80 1017.6
20260902141027 54 0 0.0 2.0 0.00 0.00 0.00 80 1017.6
20260902140528 54 0 0.0 1.0 0.00 0.00 0.00 81 1017.5
20260902140047 54 0 0.0 1.0 0.00 0.00 0.00 81 1017.5
20260902135528 54 0 0.0 2.0 0.00 0.00 0.00 81 1017.5
20260902135029 53 0 0.0 3.0 0.00 0.00 0.00 82 1017.5
20260902134554 53 0 0.0 3.0 0.00 0.00 0.00 82 1017.4
20260902134029 53 0 0.0 2.0 0.00 0.00 0.00 82 1017.3
20260902133533 53 0 0.0 2.0 0.00 0.00 0.00 82 1017.3
20260902133048 53 275 0.0 2.0 0.00 0.00 0.00 82 1017.2
20260902132531 53 290 0.0 2.0 0.00 0.00 0.00 82 1017.1
20260902132030 53 0 0.0 2.0 0.00 0.00 0.00 82 1017.1
20260902131605 53 0 0.0 2.0 0.00 0.00 0.00 83 1017.0
20260902131027 53 254 0.0 2.0 0.00 0.00 0.00 83 1017.1
20260902130529 53 0 0.0 2.0 0.00 0.00 0.00 83 1017.1
20260902130053 53 0 0.0 2.0 0.00 0.00 0.00 83 1017.0
20260902125530 53 263 0.0 2.0 0.00 0.00 0.00 83 1017.1
20260902125030 53 0 0.0 2.0 0.00 0.00 0.00 83 1017.0
20260902124552 53 281 0.0 2.0 0.00 0.00 0.00 83 1017.0
20260902124029 53 270 0.0 2.0 0.00 0.00 0.00 83 1017.0
20260902123532 53 0 0.0 2.0 0.00 0.00 0.00 83 1017.0
20260902123047 53 0 0.0 2.0 0.00 0.00 0.00 83 1017.1
20260902122532 53 0 0.0 2.0 0.00 0.00 0.00 83 1016.9
20260902122033 53 0 0.0 2.0 0.00 0.00 0.00 83 1017.0
20260902121549 53 0 0.0 2.0 0.00 0.00 0.00 83 1017.0
20260902121031 53 0 0.0 2.0 0.00 0.00 0.00 83 1017.0
20260902120532 53 0 0.0 2.0 0.00 0.00 0.00 83 1016.9
20260902120048 53 295 0.0 2.0 0.00 0.00 0.00 83 1017.0
20260902115531 53 291 0.0 2.0 0.00 0.00 0.00 83 1017.0
20260902115032 53 0 0.0 2.0 0.00 0.00 0.00 83 1016.9
20260902114611 53 279 0.0 2.0 0.00 0.00 0.00 83 1016.9
20260902114034 53 0 0.0 2.0 0.00 0.00 0.00 83 1017.1
20260902113530 53 0 0.0 2.0 0.00 0.00 0.00 83 1016.9
20260902113047 53 0 0.0 2.0 0.00 0.00 0.00 83 1016.8
20260902112531 53 0 0.0 2.0 0.00 0.00 0.00 83 1016.8
20260902112036 53 0 0.0 2.0 0.00 0.00 0.00 83 1016.8
20260902111548 53 0 0.0 2.0 0.00 0.00 0.00 83 1016.9
20260902111029 53 0 0.0 2.0 0.00 0.00 0.00 83 1016.8
20260902110531 53 0 0.0 2.0 0.00 0.00 0.00 83 1016.8
20260902110053 53 0 0.0 2.0 0.00 0.00 0.00 83 1016.9
20260902105531 53 309 0.0 2.0 0.00 0.00 0.00 83 1016.8
20260902105031 53 275 0.0 2.0 0.00 0.00 0.00 83 1017.1
20260902104556 53 0 0.0 2.0 0.00 0.00 0.00 83 1017.1
20260902104029 53 267 0.0 2.0 0.00 0.00 0.00 83 1017.0
20260902103531 53 273 0.0 1.0 0.00 0.00 0.00 83 1017.0
20260902103059 53 0 0.0 1.0 0.00 0.00 0.00 83 1017.1
20260902102531 53 0 0.0 1.0 0.00 0.00 0.00 83 1017.1
20260902102030 53 0 0.0 1.0 0.00 0.00 0.00 82 1017.2
20260902101548 53 0 0.0 1.0 0.00 0.00 0.00 82 1017.2
20260902101032 54 0 0.0 1.0 0.00 0.00 0.00 82 1017.3
20260902100533 54 273 0.0 1.0 0.00 0.00 0.00 82 1017.2
20260902100049 54 275 0.0 1.0 0.00 0.00 0.00 82 1017.2
20260902095534 54 0 0.0 1.0 0.00 0.00 0.00 82 1017.2
20260902095029 54 0 0.0 1.0 0.00 0.00 0.00 82 1017.3
20260902094551 54 0 0.0 1.0 0.00 0.00 0.00 82 1017.3
20260902094033 54 0 0.0 4.0 0.00 0.00 0.00 82 1017.2
20260902093529 54 287 0.0 4.0 0.00 0.00 0.00 82 1017.3
20260902093046 54 0 0.0 3.0 0.00 0.00 0.00 82 1017.3
20260902092531 54 0 0.0 5.0 0.00 0.00 0.00 82 1017.3
20260902092031 54 0 0.0 5.0 0.00 0.00 0.00 82 1017.3
20260902091551 54 263 1.0 5.0 0.00 0.00 0.00 82 1017.3
20260902091029 54 325 1.0 5.0 0.00 0.00 0.00 82 1017.2
20260902090532 54 0 0.0 5.0 0.00 0.00 0.00 82 1017.2
20260902090051 54 0 0.0 6.0 0.00 0.00 0.00 82 1017.2
20260902085531 54 0 0.0 6.0 0.00 0.00 0.00 82 1017.0
20260902085029 54 293 1.0 6.0 0.00 0.00 0.00 81 1017.1
20260902084548 54 297 1.0 6.0 0.00 0.00 0.00 81 1017.2
20260902084030 54 337 1.0 9.0 0.00 0.00 0.00 81 1017.2
20260902083531 54 265 1.0 9.0 0.00 0.00 0.00 81 1017.1
20260902083044 54 336 1.0 6.0 0.00 0.00 0.00 80 1017.1
20260902082531 54 289 1.0 6.0 0.00 0.00 0.00 80 1017.0
20260902082031 55 267 2.0 6.0 0.00 0.00 0.00 80 1017.0
20260902081554 55 337 2.0 6.0 0.00 0.00 0.00 80 1017.2
20260902081030 55 0 1.0 6.0 0.00 0.00 0.00 79 1017.1
20260902080531 55 341 1.0 6.0 0.00 0.00 0.00 79 1017.0
20260902080054 55 284 1.0 5.0 0.00 0.00 0.00 79 1016.9
20260902075529 55 0 1.0 5.0 0.00 0.00 0.00 79 1016.9
20260902075031 55 317 1.0 3.0 0.00 0.00 0.00 78 1016.8
20260902074552 55 315 0.0 4.0 0.00 0.00 0.00 78 1016.7
20260902074030 55 331 1.0 5.0 0.00 0.00 0.00 78 1016.7
20260902073532 55 337 1.0 5.0 0.00 0.00 0.00 78 1016.8
20260902073051 55 0 1.0 5.0 0.00 0.00 0.00 77 1016.7
20260902072528 55 291 1.0 5.0 0.00 0.00 0.00 77 1016.6
20260902072030 56 0 2.0 6.0 0.00 0.00 0.00 77 1016.7
20260902071543 56 323 0.0 6.0 0.00 0.00 0.00 77 1016.7
20260902071033 56 321 1.0 6.0 0.00 0.00 0.00 77 1016.7
20260902070530 56 327 0.0 5.0 0.00 0.00 0.00 77 1016.7
20260902070044 56 327 1.0 6.0 0.00 0.00 0.00 76 1016.7
20260902065529 56 323 1.0 8.0 0.00 0.00 0.00 77 1016.7
20260902065031 56 279 1.0 9.0 0.00 0.00 0.00 76 1016.9
20260902064551 56 317 1.0 9.0 0.00 0.00 0.00 76 1016.9
20260902064032 56 347 1.0 9.0 0.00 0.00 0.00 76 1017.0
20260902063534 56 340 1.0 9.0 0.00 0.00 0.00 75 1017.0
20260902063048 57 305 3.0 9.0 0.00 0.00 0.00 75 1017.0
20260902062529 57 343 1.0 6.0 0.00 0.00 0.00 75 1017.2
20260902062031 57 295 1.0 6.0 0.00 0.00 0.00 74 1017.2
20260902061552 57 272 2.0 6.0 0.00 0.00 0.00 74 1017.1
20260902061033 57 319 2.0 9.0 0.00 0.00 0.00 74 1017.2
20260902060527 57 329 1.0 10.0 0.00 0.00 0.00 74 1017.2
20260902060041 57 335 4.0 10.0 0.00 0.00 0.00 74 1017.2
20260902055528 57 333 1.0 10.0 0.00 0.00 0.00 73 1017.2
20260902055026 57 0 1.0 10.0 0.00 0.00 0.00 73 1017.1
20260902054551 57 338 2.0 10.0 0.00 0.00 0.00 73 1017.2
20260902054029 58 329 1.0 8.0 0.00 0.00 0.00 72 1017.1
20260902053533 58 338 1.0 8.0 0.00 0.00 0.00 71 1017.2
20260902053048 58 332 3.0 9.0 0.00 0.00 0.00 71 1017.1
20260902052530 58 344 3.0 10.0 0.00 0.00 0.00 71 1017.0
20260902052027 58 338 4.0 10.0 0.00 0.00 0.00 71 1017.2
20260902051543 58 328 3.0 8.0 0.00 0.00 0.00 71 1017.3
20260902051029 58 336 2.0 8.0 0.00 0.00 0.00 70 1017.3
20260902050530 58 342 2.0 5.0 0.00 0.00 0.00 70 1017.2
20260902050051 59 338 1.0 5.0 0.00 0.00 0.00 69 1017.2
20260902045526 59 328 2.0 5.0 0.00 0.00 0.00 68 1017.3
20260902045028 59 340 1.0 5.0 0.00 0.00 0.00 68 1017.2
20260902044550 59 331 1.0 5.0 0.00 0.00 0.00 67 1017.1
20260902044027 59 0 1.0 5.0 0.00 0.00 0.00 67 1017.1
20260902043526 59 13 2.0 5.0 0.00 0.00 0.00 66 1017.0
20260902043054 59 331 2.0 7.0 0.00 0.00 0.00 65 1017.0
20260902042527 60 24 3.0 7.0 0.00 0.00 0.00 65 1016.9
20260902042027 60 5 2.0 7.0 0.00 0.00 0.00 64 1017.0
20260902041557 60 5 3.0 7.0 0.00 0.00 0.00 64 1016.9
20260902041026 60 352 2.0 6.0 0.00 0.00 0.00 63 1016.7
20260902040526 60 350 3.0 6.0 0.00 0.00 0.00 63 1016.7
20260902040043 61 9 3.0 6.0 0.00 0.00 0.00 62 1016.6
20260902035526 61 350 2.0 6.0 0.00 0.00 0.00 62 1016.5
20260902035027 61 5 2.0 6.0 0.00 0.00 0.00 61 1016.3
20260902034553 61 9 3.0 8.0 0.00 0.00 0.00 61 1016.1
20260902034027 61 5 2.0 8.0 0.00 0.00 0.00 61 1016.1
20260902033529 61 342 2.0 8.0 0.00 0.00 0.00 60 1016.1
20260902033051 62 38 1.0 6.0 0.00 0.00 0.00 60 1016.0
20260902032531 62 40 2.0 11.0 0.00 0.00 0.00 60 1015.9
20260902032033 62 62 2.0 11.0 0.00 0.00 0.00 59 1015.9
20260902031542 62 29 2.0 9.0 0.00 0.00 0.00 59 1015.8
20260902031027 63 5 1.0 8.0 0.00 0.00 0.00 59 1015.6
20260902030530 63 52 2.0 8.0 0.00 0.00 0.00 58 1015.6
20260902030050 63 352 1.0 5.0 0.00 0.00 0.00 58 1015.5
20260902025532 63 295 1.0 5.0 0.00 0.00 0.00 57 1015.4
20260902025031 64 117 0.0 5.0 0.00 0.00 0.00 56 1015.4
20260902024549 64 0 1.0 7.0 0.00 0.00 0.00 55 1015.3
20260902024031 64 43 0.0 8.0 0.00 0.00 0.00 54 1015.3
20260902023531 64 32 1.0 8.0 0.00 0.00 0.00 53 1015.3
20260902023048 65 320 0.0 5.0 0.00 0.00 0.00 52 1015.4
20260902022531 65 49 0.0 7.0 0.00 0.00 0.00 52 1015.3
20260902022030 65 19 3.0 9.0 0.00 0.00 0.00 51 1015.4
20260902021553 65 28 4.0 9.0 0.00 0.00 0.00 50 1015.2
20260902021031 66 331 1.0 9.0 0.00 0.00 0.00 50 1015.2
20260902020531 66 36 1.0 9.0 0.00 0.00 0.00 49 1015.2
20260902020052 66 17 2.0 9.0 0.00 0.00 0.00 49 1015.2
20260902015530 67 325 3.0 9.0 0.00 0.00 0.00 48 1015.2
20260902015034 67 5 1.0 6.0 0.00 0.00 0.00 48 1015.1
20260902014550 67 344 3.0 8.0 0.00 0.00 0.00 47 1015.2
20260902014032 68 25 3.0 8.0 0.00 0.00 0.00 46 1015.2
20260902013534 68 346 2.0 8.0 0.00 0.00 0.00 46 1015.2
20260902013044 68 317 2.0 10.0 0.00 0.00 0.00 45 1015.1
20260902012531 68 11 4.0 12.0 0.00 0.00 0.00 44 1015.1
20260902012030 68 315 4.0 12.0 0.00 0.00 0.00 44 1015.1
20260902011551 68 348 4.0 11.0 0.00 0.00 0.00 44 1015.2
20260902011031 69 311 2.0 11.0 0.00 0.00 0.00 45 1015.2
20260902010529 69 5 4.0 11.0 0.00 0.00 0.00 44 1015.2
20260902010047 69 318 6.0 11.0 0.00 0.00 0.00 43 1015.2
20260902005528 69 329 4.0 11.0 0.00 0.00 0.00 43 1015.2
20260902005028 70 343 6.0 11.0 0.00 0.00 0.00 43 1015.2
20260902004548 70 59 2.0 9.0 0.00 0.00 0.00 44 1015.1
20260902004028 70 360 2.0 10.0 0.00 0.00 0.00 44 1015.2
20260902003531 70 352 2.0 12.0 0.00 0.00 0.00 44 1015.1
20260902003054 70 317 5.0 12.0 0.00 0.00 0.00 43 1015.2
20260902002534 70 352 6.0 12.0 0.00 0.00 0.00 43 1015.2
20260902002035 71 319 3.0 13.0 0.00 0.00 0.00 43 1015.3
20260902001552 71 50 6.0 13.0 0.00 0.00 0.00 43 1015.2
20260902001034 71 5 5.0 12.0 0.00 0.00 0.00 44 1015.2
20260902000616 71 352 4.0 11.0 0.00 0.00 0.00 42 1015.3
20260902000112 72 0 4.0 11.0 0.00 0.00 0.00 43 1015.2
20260901235532 71 346 6.0 11.0 0.00 0.00 0.00 43 1015.3
20260901235031 71 322 2.0 11.0 0.00 0.00 0.00 43 1015.3
20260901234547 71 207 5.0 11.0 0.00 0.00 0.00 42 1015.2
20260901234029 71 319 4.0 12.0 0.00 0.00 0.00 44 1015.3
20260901233532 72 5 6.0 12.0 0.00 0.00 0.00 43 1015.2
20260901233044 72 333 5.0 12.0 0.00 0.00 0.00 42 1015.3
20260901232531 72 344 4.0 13.0 0.00 0.00 0.00 43 1015.2
20260901232033 71 32 2.0 13.0 0.00 0.00 0.00 44 1015.2
20260901231555 71 360 5.0 13.0 0.00 0.00 0.00 43 1015.3
20260901231030 72 352 6.0 12.0 0.00 0.00 0.00 43 1015.5
20260901230529 72 347 3.0 12.0 0.00 0.00 0.00 43 1015.5
20260901230104 72 347 4.0 12.0 0.00 0.00 0.00 42 1015.4
20260901225532 72 323 5.0 11.0 0.00 0.00 0.00 44 1015.5
20260901225031 71 13 1.0 14.0 0.00 0.00 0.00 43 1015.5
20260901224549 72 349 7.0 14.0 0.00 0.00 0.00 44 1015.6
20260901224030 71 5 7.0 12.0 0.00 0.00 0.00 44 1015.5
20260901223532 72 9 7.0 12.0 0.00 0.00 0.00 44 1015.7
20260901223043 71 322 4.0 12.0 0.00 0.00 0.00 45 1015.6
20260901222531 72 350 8.0 14.0 0.00 0.00 0.00 44 1015.9
20260901222030 72 17 7.0 14.0 0.00 0.00 0.00 44 1015.9
20260901221551 71 24 4.0 12.0 0.00 0.00 0.00 46 1015.9
20260901221029 72 339 5.0 12.0 0.00 0.00 0.00 45 1016.0
20260901220531 71 331 3.0 11.0 0.00 0.00 0.00 46 1015.9
20260901220114 71 5 6.0 11.0 0.00 0.00 0.00 45 1015.9
20260901215528 71 329 4.0 16.0 0.00 0.00 0.00 46 1015.9
20260901215033 71 348 4.0 16.0 0.00 0.00 0.00 46 1016.1
20260901214545 72 339 7.0 14.0 0.00 0.00 0.00 45 1016.0
20260901214031 71 16 7.0 13.0 0.00 0.00 0.00 47 1015.9
20260901213532 71 26 2.0 12.0 0.00 0.00 0.00 48 1015.7
20260901213108 70 20 5.0 12.0 0.00 0.00 0.00 48 1015.9
20260901212530 70 360 4.0 12.0 0.00 0.00 0.00 49 1015.9
20260901212029 70 22 5.0 14.0 0.00 0.00 0.00 50 1016.0
20260901211553 70 352 6.0 14.0 0.00 0.00 0.00 49 1016.0
20260901211030 70 319 3.0 13.0 0.00 0.00 0.00 52 1016.1
20260901210529 69 317 3.0 13.0 0.00 0.00 0.00 53 1016.2
20260901210058 69 17 1.0 8.0 0.00 0.00 0.00 53 1016.1
20260901205531 68 44 1.0 8.0 0.00 0.00 0.00 56 1016.2
20260901205031 67 130 1.0 10.0 0.00 0.00 0.00 55 1016.2
20260901204544 68 127 2.0 10.0 0.00 0.00 0.00 55 1016.3
20260901204031 68 22 3.0 10.0 0.00 0.00 0.00 54 1016.3
20260901203531 67 68 4.0 13.0 0.00 0.00 0.00 54 1016.3
20260901203102 66 71 5.0 13.0 0.00 0.00 0.00 56 1016.4
20260901202531 66 360 2.0 10.0 0.00 0.00 0.00 58 1016.6